Time,TemperatureF,DewpointF,PressureIn,WindDirection,WindDirectionDegrees,WindSpeedMPH,WindSpeedGustMPH,Humidity,HourlyPrecipIn,Conditions,Clouds,dailyrainin,SolarRadiationWatts/m^2,SoftwareType,DateUTC
2013-01-30 00:01:00,49.6,45.6,30.22,West,278,4.0,4.0,86,0.00,CLR,FEW,0.00,0.0,WeatherDisplay:10.37,2013-01-29 23:01:00,
2013-01-30 00:06:00,49.8,46.1,30.23,West,267,5.8,5.8,87,0.00,CLR,FEW,0.00,0.0,WeatherDisplay:10.37,2013-01-29 23:06:00,
2013-01-30 00:11:00,50.0,46.3,30.23,WSW,252,6.0,6.0,87,0.00,CLR,FEW,0.00,0.0,WeatherDisplay:10.37,2013-01-29 23:11:00,
2013-01-30 00:16:00,50.0,46.3,30.23,West,264,4.6,4.6,87,0.00,CLR,FEW,0.00,0.0,WeatherDisplay:10.37,2013-01-29 23:16:00,
2013-01-30 00:21:00,50.0,46.3,30.23,West,280,3.5,3.5,87,0.00,CLR,FEW,0.00,0.0,WeatherDisplay:10.37,2013-01-29 23:21:00,
2013-01-30 00:26:00,49.9,46.2,30.23,WNW,286,4.6,4.6,87,0.00,CLR,FEW,0.00,0.0,WeatherDisplay:10.37,2013-01-29 23:26:00,
2013-01-30 00:31:00,49.9,46.2,30.23,West,279,4.6,4.6,87,0.00,CLR,FEW,0.00,0.0,WeatherDisplay:10.37,2013-01-29 23:31:00,
2013-01-30 00:36:00,49.7,45.7,30.22,West,279,0.0,0.0,86,0.00,CLR,FEW,0.00,0.0,WeatherDisplay:10.37,2013-01-29 23:36:00,
2013-01-30 00:41:00,49.6,45.6,30.22,West,279,3.5,3.5,86,0.00,CLR,FEW,0.00,0.0,WeatherDisplay:10.37,2013-01-29 23:41:00,
2013-01-30 00:46:00,49.4,45.4,30.23,West,278,4.6,4.6,86,0.00,CLR,FEW,0.00,0.0,WeatherDisplay:10.37,2013-01-29 23:46:00,
2013-01-30 00:51:00,49.3,45.3,30.22,West,278,3.5,3.5,86,0.00,CLR,FEW,0.00,0.0,WeatherDisplay:10.37,2013-01-29 23:51:00,
2013-01-30 00:56:00,49.3,45.3,30.22,West,278,1.2,1.2,86,0.00,CLR,FEW,0.00,0.0,WeatherDisplay:10.37,2013-01-29 23:56:00,
2013-01-30 01:01:00,49.3,45.3,30.22,West,278,3.5,3.5,86,0.00,CLR,FEW,0.00,0.0,WeatherDisplay:10.37,2013-01-30 00:01:00,
2013-01-30 01:06:00,49.3,45.3,30.22,West,278,3.5,0.0,86,0.00,CLR,FEW,0.00,0.0,WeatherDisplay:10.37,2013-01-30 00:06:00,
2013-01-30 01:11:00,49.2,45.2,30.22,West,277,4.0,4.0,86,0.00,CLR,FEW,0.00,0.0,WeatherDisplay:10.37,2013-01-30 00:11:00,
2013-01-30 01:16:00,49.2,45.5,30.22,West,273,5.8,5.8,87,0.00,CLR,FEW,0.00,0.0,WeatherDisplay:10.37,2013-01-30 00:16:00,
2013-01-30 01:21:00,49.2,45.5,30.22,West,272,3.5,3.5,87,0.00,CLR,FEW,0.00,0.0,WeatherDisplay:10.37,2013-01-30 00:21:00,
2013-01-30 01:27:00,49.3,45.6,30.22,West,271,5.8,5.8,87,0.00,CLR,FEW,0.00,0.0,WeatherDisplay:10.37,2013-01-30 00:27:00,
2013-01-30 01:32:00,49.3,45.6,30.22,West,271,3.5,3.5,87,0.00,CLR,FEW,0.00,0.0,WeatherDisplay:10.37,2013-01-30 00:32:00,
2013-01-30 01:37:00,49.4,45.7,30.21,West,271,3.5,3.5,87,0.00,CLR,FEW,0.00,0.0,WeatherDisplay:10.37,2013-01-30 00:37:00,
2013-01-30 01:42:00,49.5,45.8,30.21,West,271,3.5,3.5,87,0.00,CLR,FEW,0.00,0.0,WeatherDisplay:10.37,2013-01-30 00:42:00,
2013-01-30 01:47:00,49.5,45.8,30.22,West,271,3.5,3.5,87,0.00,CLR,FEW,0.00,0.0,WeatherDisplay:10.37,2013-01-30 00:47:00,
2013-01-30 01:52:00,49.6,45.9,30.22,West,274,4.6,4.6,87,0.00,CLR,FEW,0.00,0.0,WeatherDisplay:10.37,2013-01-30 00:52:00,
2013-01-30 01:57:00,49.7,46.0,30.22,West,275,6.9,6.9,87,0.00,CLR,FEW,0.00,0.0,WeatherDisplay:10.37,2013-01-30 00:57:00,
2013-01-30 02:02:00,49.7,46.0,30.22,West,276,4.6,4.6,87,0.00,CLR,FEW,0.00,0.0,WeatherDisplay:10.37,2013-01-30 01:02:00,
2013-01-30 02:07:00,49.7,46.0,30.22,West,262,5.8,5.8,87,0.00,CLR,FEW,0.00,0.0,WeatherDisplay:10.37,2013-01-30 01:07:00,
2013-01-30 02:12:00,49.8,46.1,30.22,West,270,4.6,4.6,87,0.00,CLR,FEW,0.00,0.0,WeatherDisplay:10.37,2013-01-30 01:12:00,
2013-01-30 02:17:00,49.8,46.1,30.22,West,261,5.8,5.8,87,0.00,CLR,FEW,0.00,0.0,WeatherDisplay:10.37,2013-01-30 01:17:00,
2013-01-30 02:22:00,49.7,46.0,30.22,West,278,5.8,5.8,87,0.00,CLR,FEW,0.00,0.0,WeatherDisplay:10.37,2013-01-30 01:22:00,
2013-01-30 02:27:00,49.7,46.0,30.22,West,265,10.4,10.4,87,0.00,CLR,FEW,0.00,0.0,WeatherDisplay:10.37,2013-01-30 01:27:00,
2013-01-30 02:32:00,49.6,45.6,30.22,West,265,4.6,4.6,86,0.00,CLR,FEW,0.00,0.0,WeatherDisplay:10.37,2013-01-30 01:32:00,
2013-01-30 02:37:00,49.5,45.5,30.22,West,263,3.5,3.5,86,0.00,CLR,FEW,0.00,0.0,WeatherDisplay:10.37,2013-01-30 01:37:00,
2013-01-30 02:42:00,49.4,45.4,30.22,NW,309,3.5,3.5,86,0.00,CLR,FEW,0.00,0.0,WeatherDisplay:10.37,2013-01-30 01:42:00,
2013-01-30 02:47:00,49.3,45.3,30.22,WNW,289,3.5,3.5,86,0.00,CLR,FEW,0.00,0.0,WeatherDisplay:10.37,2013-01-30 01:47:00,
2013-01-30 02:52:00,49.4,45.7,30.22,WNW,285,3.5,3.5,87,0.00,CLR,FEW,0.00,0.0,WeatherDisplay:10.37,2013-01-30 01:52:00,
2013-01-30 02:57:00,49.5,45.8,30.22,West,271,6.9,6.9,87,0.00,CLR,FEW,0.00,0.0,WeatherDisplay:10.37,2013-01-30 01:57:00,
2013-01-30 03:02:00,49.6,45.9,30.22,WNW,292,5.8,5.8,87,0.00,CLR,FEW,0.00,0.0,WeatherDisplay:10.37,2013-01-30 02:02:00,
2013-01-30 03:07:00,49.7,46.0,30.22,West,277,4.6,4.6,87,0.00,CLR,FEW,0.00,0.0,WeatherDisplay:10.37,2013-01-30 02:07:00,
2013-01-30 03:12:00,49.8,46.1,30.22,WNW,287,9.2,9.2,87,0.00,CLR,FEW,0.00,0.0,WeatherDisplay:10.37,2013-01-30 02:12:00,
2013-01-30 03:17:00,50.0,46.3,30.22,West,274,3.5,3.5,87,0.00,CLR,FEW,0.00,0.0,WeatherDisplay:10.37,2013-01-30 02:17:00,
2013-01-30 03:22:00,50.1,46.4,30.22,NW,306,4.6,4.6,87,0.00,CLR,FEW,0.00,0.0,WeatherDisplay:10.37,2013-01-30 02:22:00,
2013-01-30 03:27:00,50.1,46.4,30.21,WNW,292,3.5,3.5,87,0.00,CLR,FEW,0.00,0.0,WeatherDisplay:10.37,2013-01-30 02:27:00,
2013-01-30 03:32:00,50.1,46.4,30.21,WNW,300,3.0,3.0,87,0.00,CLR,FEW,0.00,0.0,WeatherDisplay:10.37,2013-01-30 02:32:00,
2013-01-30 03:37:00,50.0,46.3,30.21,WNW,300,3.5,3.5,87,0.00,CLR,FEW,0.00,0.0,WeatherDisplay:10.37,2013-01-30 02:37:00,
2013-01-30 03:42:00,49.9,46.2,30.21,WNW,288,4.6,4.6,87,0.00,CLR,FEW,0.00,0.0,WeatherDisplay:10.37,2013-01-30 02:42:00,
2013-01-30 03:47:00,49.9,46.2,30.21,West,269,3.5,3.5,87,0.00,CLR,FEW,0.00,0.0,WeatherDisplay:10.37,2013-01-30 02:47:00,
2013-01-30 03:52:00,49.8,46.1,30.21,NNW,347,3.5,3.5,87,0.00,CLR,FEW,0.00,0.0,WeatherDisplay:10.37,2013-01-30 02:52:00,
2013-01-30 03:57:00,49.7,46.0,30.21,NNW,347,1.2,1.2,87,0.00,CLR,FEW,0.00,0.0,WeatherDisplay:10.37,2013-01-30 02:57:00,
2013-01-30 04:02:00,49.7,46.3,30.21,NNE,19,4.6,4.6,88,0.00,CLR,FEW,0.00,0.0,WeatherDisplay:10.37,2013-01-30 03:02:00,
2013-01-30 04:07:00,49.6,46.2,30.21,NW,308,3.5,3.5,88,0.00,CLR,FEW,0.00,0.0,WeatherDisplay:10.37,2013-01-30 03:07:00,
2013-01-30 04:12:00,49.6,46.2,30.21,NW,325,3.5,3.5,88,0.00,CLR,FEW,0.00,0.0,WeatherDisplay:10.37,2013-01-30 03:12:00,
2013-01-30 04:17:00,49.6,46.2,30.21,NNW,333,3.5,3.5,88,0.00,CLR,FEW,0.00,0.0,WeatherDisplay:10.37,2013-01-30 03:17:00,
2013-01-30 04:22:00,49.6,46.2,30.20,NNW,337,3.5,3.5,88,0.00,CLR,FEW,0.00,0.0,WeatherDisplay:10.37,2013-01-30 03:22:00,
2013-01-30 04:27:00,49.6,46.2,30.21,West,271,3.5,3.5,88,0.00,CLR,FEW,0.00,0.0,WeatherDisplay:10.37,2013-01-30 03:27:00,
2013-01-30 04:32:00,49.5,46.1,30.21,NW,325,3.5,3.5,88,0.00,CLR,FEW,0.00,0.0,WeatherDisplay:10.37,2013-01-30 03:32:00,
2013-01-30 04:37:00,49.4,46.0,30.21,NNE,18,3.5,3.5,88,0.00,CLR,FEW,0.00,0.0,WeatherDisplay:10.37,2013-01-30 03:37:00,
2013-01-30 04:42:00,49.3,45.6,30.21,NW,311,5.8,5.8,87,0.00,CLR,FEW,0.00,0.0,WeatherDisplay:10.37,2013-01-30 03:42:00,
2013-01-30 04:47:00,49.4,46.0,30.21,NW,319,2.3,2.3,88,0.00,CLR,FEW,0.00,0.0,WeatherDisplay:10.37,2013-01-30 03:47:00,
2013-01-30 04:52:00,49.4,46.0,30.22,WNW,290,3.5,3.5,88,0.00,CLR,FEW,0.00,0.0,WeatherDisplay:10.37,2013-01-30 03:52:00,
2013-01-30 04:57:00,49.4,46.0,30.22,North,355,4.6,4.6,88,0.00,CLR,FEW,0.00,0.0,WeatherDisplay:10.37,2013-01-30 03:57:00,
2013-01-30 05:02:00,49.4,46.0,30.22,North,355,1.2,1.2,88,0.00,CLR,FEW,0.00,0.0,WeatherDisplay:10.37,2013-01-30 04:02:00,
2013-01-30 05:07:00,49.3,45.9,30.21,North,355,1.2,1.2,88,0.00,CLR,FEW,0.00,0.0,WeatherDisplay:10.37,2013-01-30 04:07:00,
2013-01-30 05:12:00,49.2,45.8,30.21,North,355,4.6,4.6,88,0.00,CLR,FEW,0.00,0.0,WeatherDisplay:10.37,2013-01-30 04:12:00,
2013-01-30 05:17:00,49.2,45.8,30.21,North,350,3.5,3.5,88,0.00,CLR,FEW,0.00,0.0,WeatherDisplay:10.37,2013-01-30 04:17:00,
2013-01-30 05:22:00,49.1,45.7,30.21,NNE,19,5.0,5.0,88,0.00,CLR,FEW,0.00,0.0,WeatherDisplay:10.37,2013-01-30 04:22:00,
2013-01-30 05:27:00,49.0,45.6,30.21,NNE,19,0.0,0.0,88,0.00,CLR,FEW,0.00,0.0,WeatherDisplay:10.37,2013-01-30 04:27:00,
2013-01-30 05:32:00,48.8,45.4,30.21,NNE,19,1.2,1.2,88,0.00,CLR,FEW,0.00,0.0,WeatherDisplay:10.37,2013-01-30 04:32:00,
2013-01-30 05:37:00,48.8,45.4,30.21,NNE,19,3.5,3.5,88,0.00,CLR,FEW,0.00,0.0,WeatherDisplay:10.37,2013-01-30 04:37:00,
2013-01-30 05:42:00,48.7,45.3,30.21,NNE,19,1.0,1.0,88,0.00,CLR,FEW,0.00,0.0,WeatherDisplay:10.37,2013-01-30 04:42:00,
2013-01-30 05:47:00,48.5,45.1,30.21,NNE,19,1.2,0.0,88,0.00,CLR,FEW,0.00,0.0,WeatherDisplay:10.37,2013-01-30 04:47:00,
2013-01-30 05:52:00,48.4,45.0,30.21,NNE,19,0.0,0.0,88,0.00,CLR,FEW,0.00,0.0,WeatherDisplay:10.37,2013-01-30 04:52:00,
2013-01-30 05:57:00,48.3,44.9,30.20,NNE,19,0.0,0.2,88,0.00,CLR,FEW,0.00,0.0,WeatherDisplay:10.37,2013-01-30 04:57:00,
2013-01-30 06:00:00,48.3,44.9,30.20,NNE,19,0.0,0.0,88,0.00,CLR,FEW,0.00,0.0,WeatherDisplay:10.37,2013-01-30 05:00:00,
2013-01-30 06:01:00,48.3,44.9,30.20,NNE,19,0.0,2.0,88,0.00,CLR,FEW,0.00,0.0,WeatherDisplay:10.37,2013-01-30 05:01:00,
2013-01-30 06:02:00,48.3,44.9,30.20,NNE,19,0.0,0.0,88,0.00,CLR,FEW,0.00,0.0,WeatherDisplay:10.37,2013-01-30 05:02:00,
2013-01-30 06:07:00,48.3,44.9,30.20,NNE,19,0.0,0.1,88,0.00,CLR,FEW,0.00,0.0,WeatherDisplay:10.37,2013-01-30 05:07:00,
2013-01-30 06:12:00,48.3,46.1,30.20,ENE,60,3.5,3.5,92,0.00,CLR,FEW,0.00,0.0,WeatherDisplay:10.37,2013-01-30 05:12:00,
2013-01-30 06:17:00,48.4,45.3,30.20,ENE,60,3.5,3.5,89,0.00,CLR,FEW,0.00,0.0,WeatherDisplay:10.37,2013-01-30 05:17:00,
2013-01-30 06:22:00,48.4,45.3,30.20,ENE,60,3.5,3.5,89,0.00,CLR,FEW,0.00,0.0,WeatherDisplay:10.37,2013-01-30 05:22:00,
2013-01-30 06:27:00,48.5,45.1,30.20,ENE,60,1.2,0.0,88,0.00,CLR,FEW,0.00,0.0,WeatherDisplay:10.37,2013-01-30 05:27:00,
2013-01-30 06:33:00,48.6,45.2,30.20,ENE,60,0.0,0.0,88,0.00,CLR,FEW,0.00,0.0,WeatherDisplay:10.37,2013-01-30 05:33:00,
2013-01-30 06:38:00,48.6,45.2,30.20,ENE,60,1.2,0.0,88,0.00,CLR,FEW,0.00,0.0,WeatherDisplay:10.37,2013-01-30 05:38:00,
2013-01-30 06:43:00,48.7,45.3,30.21,ENE,60,0.0,0.0,88,0.00,CLR,FEW,0.00,0.0,WeatherDisplay:10.37,2013-01-30 05:43:00,
2013-01-30 06:48:00,48.7,45.3,30.21,ENE,60,1.2,0.0,88,0.00,CLR,FEW,0.00,0.0,WeatherDisplay:10.37,2013-01-30 05:48:00,
2013-01-30 06:53:00,48.7,45.3,30.21,ENE,60,0.0,0.0,88,0.00,CLR,FEW,0.00,0.0,WeatherDisplay:10.37,2013-01-30 05:53:00,
2013-01-30 06:58:00,48.8,45.4,30.21,ENE,60,1.2,0.0,88,0.00,CLR,FEW,0.00,0.0,WeatherDisplay:10.37,2013-01-30 05:58:00,
2013-01-30 07:03:00,48.9,45.5,30.21,ENE,60,1.2,1.2,88,0.00,OVC,FEW,0.00,0.0,WeatherDisplay:10.37,2013-01-30 06:03:00,
2013-01-30 07:08:00,48.9,45.5,30.22,ENE,60,0.0,0.0,88,0.00,OVC,FEW,0.00,0.0,WeatherDisplay:10.37,2013-01-30 06:08:00,
2013-01-30 07:13:00,49.0,45.6,30.22,ENE,60,0.0,0.0,88,0.00,OVC,FEW,0.00,0.0,WeatherDisplay:10.37,2013-01-30 06:13:00,
2013-01-30 07:18:00,49.1,45.7,30.22,ENE,60,2.3,2.3,88,0.00,OVC,FEW,0.00,0.0,WeatherDisplay:10.37,2013-01-30 06:18:00,
2013-01-30 07:23:00,49.3,45.6,30.22,ENE,60,3.5,0.0,87,0.00,OVC,FEW,0.00,0.0,WeatherDisplay:10.37,2013-01-30 06:23:00,
2013-01-30 07:28:00,49.3,45.6,30.22,ENE,60,2.3,2.3,87,0.00,OVC,FEW,0.00,0.0,WeatherDisplay:10.37,2013-01-30 06:28:00,
2013-01-30 07:33:00,49.3,45.6,30.22,ENE,60,4.0,4.0,87,0.00,OVC,FEW,0.00,0.0,WeatherDisplay:10.37,2013-01-30 06:33:00,
2013-01-30 07:38:00,49.4,45.7,30.22,East,82,3.5,3.5,87,0.00,OVC,FEW,0.00,0.0,WeatherDisplay:10.37,2013-01-30 06:38:00,
2013-01-30 07:43:00,49.5,45.8,30.22,East,82,2.3,2.3,87,0.00,OVC,FEW,0.00,0.0,WeatherDisplay:10.37,2013-01-30 06:43:00,
2013-01-30 07:48:00,49.6,45.9,30.22,East,84,3.5,3.5,87,0.00,OVC,FEW,0.00,0.0,WeatherDisplay:10.37,2013-01-30 06:48:00,
2013-01-30 07:53:00,49.6,45.6,30.22,East,84,2.3,0.0,86,0.00,OVC,FEW,0.00,0.0,WeatherDisplay:10.37,2013-01-30 06:53:00,
2013-01-30 07:58:00,49.7,45.7,30.22,East,84,1.2,0.0,86,0.00,OVC,FEW,0.00,0.0,WeatherDisplay:10.37,2013-01-30 06:58:00,
2013-01-30 08:03:00,49.7,45.7,30.22,East,84,2.3,2.3,86,0.00,OVC,FEW,0.00,0.0,WeatherDisplay:10.37,2013-01-30 07:03:00,
2013-01-30 08:08:00,49.8,45.8,30.22,East,84,1.2,1.2,86,0.00,OVC,FEW,0.00,0.0,WeatherDisplay:10.37,2013-01-30 07:08:00,
2013-01-30 08:13:00,49.8,45.8,30.22,East,84,0.0,0.0,86,0.00,OVC,FEW,0.00,0.0,WeatherDisplay:10.37,2013-01-30 07:13:00,
2013-01-30 08:18:00,49.9,45.9,30.22,East,84,0.0,0.0,86,0.00,OVC,FEW,0.00,0.0,WeatherDisplay:10.37,2013-01-30 07:18:00,
2013-01-30 08:23:00,49.9,45.9,30.22,East,84,0.0,0.0,86,0.00,OVC,FEW,0.00,0.0,WeatherDisplay:10.37,2013-01-30 07:23:00,
2013-01-30 08:28:00,50.0,46.0,30.21,East,84,0.0,0.0,86,0.00,OVC,FEW,0.00,0.0,WeatherDisplay:10.37,2013-01-30 07:28:00,
2013-01-30 08:33:00,50.1,46.1,30.22,East,84,0.0,0.0,86,0.00,OVC,FEW,0.00,0.0,WeatherDisplay:10.37,2013-01-30 07:33:00,
2013-01-30 08:38:00,50.3,46.3,30.22,East,84,0.0,0.0,86,0.00,OVC,FEW,0.00,0.0,WeatherDisplay:10.37,2013-01-30 07:38:00,
2013-01-30 08:43:00,50.4,46.4,30.22,East,84,1.2,0.0,86,0.00,OVC,FEW,0.00,0.0,WeatherDisplay:10.37,2013-01-30 07:43:00,
2013-01-30 08:48:00,50.5,46.5,30.21,East,84,2.3,2.3,86,0.00,OVC,FEW,0.00,0.0,WeatherDisplay:10.37,2013-01-30 07:48:00,
2013-01-30 08:53:00,50.6,46.6,30.21,East,84,2.3,2.3,86,0.00,OVC,FEW,0.00,0.0,WeatherDisplay:10.37,2013-01-30 07:53:00,
2013-01-30 08:58:00,50.8,46.8,30.21,East,84,0.0,0.0,86,0.00,OVC,FEW,0.00,0.0,WeatherDisplay:10.37,2013-01-30 07:58:00,
2013-01-30 09:03:00,50.9,46.9,30.21,East,84,0.0,0.0,86,0.00,OVC,FEW,0.00,0.0,WeatherDisplay:10.37,2013-01-30 08:03:00,
2013-01-30 09:08:00,51.3,47.3,30.20,East,84,2.3,2.3,86,0.00,OVC,FEW,0.00,0.0,WeatherDisplay:10.37,2013-01-30 08:08:00,
2013-01-30 09:13:00,51.5,47.5,30.20,WNW,285,2.3,2.3,86,0.00,OVC,FEW,0.00,0.0,WeatherDisplay:10.37,2013-01-30 08:13:00,
2013-01-30 09:18:00,51.7,47.6,30.21,West,273,3.5,3.5,86,0.00,OVC,FEW,0.00,0.0,WeatherDisplay:10.37,2013-01-30 08:18:00,
2013-01-30 09:23:00,51.7,47.6,30.20,South,186,4.6,4.6,86,0.00,OVC,FEW,0.00,0.0,WeatherDisplay:10.37,2013-01-30 08:23:00,
2013-01-30 09:28:00,51.9,47.5,30.21,East,96,3.5,3.5,85,0.00,OVC,FEW,0.00,0.0,WeatherDisplay:10.37,2013-01-30 08:28:00,
2013-01-30 09:33:00,52.0,47.6,30.21,SSW,199,4.0,4.0,85,0.00,OVC,FEW,0.00,0.0,WeatherDisplay:10.37,2013-01-30 08:33:00,
2013-01-30 09:38:00,51.9,47.5,30.21,SSW,199,0.0,0.0,85,0.00,OVC,FEW,0.00,0.0,WeatherDisplay:10.37,2013-01-30 08:38:00,
2013-01-30 09:43:00,51.9,47.5,30.21,SSW,199,1.2,0.0,85,0.00,OVC,FEW,0.00,0.0,WeatherDisplay:10.37,2013-01-30 08:43:00,
2013-01-30 09:48:00,52.0,47.6,30.21,SSW,199,1.2,1.2,85,0.00,OVC,FEW,0.00,0.0,WeatherDisplay:10.37,2013-01-30 08:48:00,
2013-01-30 09:53:00,52.0,47.6,30.22,ESE,102,4.6,4.6,85,0.00,OVC,FEW,0.00,0.0,WeatherDisplay:10.37,2013-01-30 08:53:00,
2013-01-30 09:58:00,52.0,47.6,30.21,ESE,102,1.2,1.2,85,0.00,OVC,FEW,0.00,0.0,WeatherDisplay:10.37,2013-01-30 08:58:00,
2013-01-30 10:03:00,52.0,47.6,30.21,SW,217,2.3,2.3,85,0.00,OVC,FEW,0.00,0.0,WeatherDisplay:10.37,2013-01-30 09:03:00,
2013-01-30 10:08:00,52.0,47.6,30.21,SSW,200,4.0,4.0,85,0.00,OVC,FEW,0.00,0.0,WeatherDisplay:10.37,2013-01-30 09:08:00,
2013-01-30 10:13:00,52.0,47.6,30.22,SSW,200,1.2,0.0,85,0.00,OVC,FEW,0.00,0.0,WeatherDisplay:10.37,2013-01-30 09:13:00,
2013-01-30 10:18:00,52.0,47.9,30.22,SW,215,3.5,3.5,86,0.00,OVC,FEW,0.00,0.0,WeatherDisplay:10.37,2013-01-30 09:18:00,
2013-01-30 10:23:00,52.0,47.9,30.22,WSW,241,3.5,3.5,86,0.00,OVC,FEW,0.00,0.0,WeatherDisplay:10.37,2013-01-30 09:23:00,
2013-01-30 10:28:00,52.0,47.9,30.22,South,189,4.0,4.0,86,0.00,OVC,FEW,0.00,0.0,WeatherDisplay:10.37,2013-01-30 09:28:00,
2013-01-30 10:33:00,52.1,48.0,30.22,WSW,239,2.3,2.3,86,0.00,OVC,FEW,0.00,0.0,WeatherDisplay:10.37,2013-01-30 09:33:00,
2013-01-30 10:38:00,52.3,48.2,30.22,SSW,208,3.5,3.5,86,0.00,OVC,FEW,0.00,0.0,WeatherDisplay:10.37,2013-01-30 09:38:00,
2013-01-30 10:43:00,52.4,48.3,30.22,ESE,118,8.1,8.1,86,0.00,OVC,FEW,0.00,0.0,WeatherDisplay:10.37,2013-01-30 09:43:00,
2013-01-30 10:48:00,52.2,48.1,30.22,SSW,203,4.6,4.6,86,0.00,OVC,FEW,0.00,0.0,WeatherDisplay:10.37,2013-01-30 09:48:00,
2013-01-30 10:53:00,52.1,48.0,30.22,South,171,4.6,4.6,86,0.00,OVC,FEW,0.00,0.0,WeatherDisplay:10.37,2013-01-30 09:53:00,
2013-01-30 10:58:00,52.1,48.0,30.22,SSE,164,1.2,1.2,86,0.00,OVC,FEW,0.00,0.0,WeatherDisplay:10.37,2013-01-30 09:58:00,
2013-01-30 11:03:00,52.4,48.3,30.22,WNW,288,2.3,2.3,86,0.00,OVC,FEW,0.00,0.0,WeatherDisplay:10.37,2013-01-30 10:03:00,
2013-01-30 11:08:00,52.7,48.6,30.22,WNW,288,0.0,0.0,86,0.00,OVC,FEW,0.00,0.0,WeatherDisplay:10.37,2013-01-30 10:08:00,
2013-01-30 11:13:00,52.7,48.6,30.22,WNW,288,2.0,2.0,86,0.00,OVC,FEW,0.00,0.0,WeatherDisplay:10.37,2013-01-30 10:13:00,
2013-01-30 11:18:00,52.7,48.6,30.22,WNW,288,0.0,0.0,86,0.00,OVC,FEW,0.00,0.0,WeatherDisplay:10.37,2013-01-30 10:18:00,
2013-01-30 11:23:00,52.6,48.5,30.22,WNW,288,0.0,0.0,86,0.00,OVC,FEW,0.00,0.0,WeatherDisplay:10.37,2013-01-30 10:23:00,
2013-01-30 11:28:00,52.7,48.6,30.22,WNW,288,0.0,0.0,86,0.00,OVC,FEW,0.00,0.0,WeatherDisplay:10.37,2013-01-30 10:28:00,
2013-01-30 11:33:00,52.8,48.7,30.21,WNW,288,1.2,1.2,86,0.00,OVC,FEW,0.00,0.0,WeatherDisplay:10.37,2013-01-30 10:33:00,
2013-01-30 11:38:00,52.9,48.8,30.21,WNW,288,0.0,0.0,86,0.00,OVC,FEW,0.00,0.0,WeatherDisplay:10.37,2013-01-30 10:38:00,
2013-01-30 11:43:00,53.1,49.0,30.21,SSE,156,3.5,3.5,86,0.00,OVC,FEW,0.00,0.0,WeatherDisplay:10.37,2013-01-30 10:43:00,
2013-01-30 11:48:00,53.2,49.1,30.21,South,173,3.5,3.5,86,0.00,OVC,FEW,0.00,0.0,WeatherDisplay:10.37,2013-01-30 10:48:00,
2013-01-30 11:53:00,53.3,49.2,30.21,SW,229,4.6,4.6,86,0.00,OVC,FEW,0.00,0.0,WeatherDisplay:10.37,2013-01-30 10:53:00,
2013-01-30 11:58:00,53.3,49.2,30.21,WSW,249,5.0,5.0,86,0.00,OVC,FEW,0.00,0.0,WeatherDisplay:10.37,2013-01-30 10:58:00,
2013-01-30 12:03:00,53.4,49.3,30.21,WSW,249,3.5,3.5,86,0.00,OVC,FEW,0.00,0.0,WeatherDisplay:10.37,2013-01-30 11:03:00,
2013-01-30 12:08:00,53.6,49.2,30.21,WSW,250,2.3,2.3,85,0.00,OVC,FEW,0.00,0.0,WeatherDisplay:10.37,2013-01-30 11:08:00,
2013-01-30 12:13:00,54.1,49.7,30.21,WSW,250,4.6,4.6,85,0.00,OVC,FEW,0.00,0.0,WeatherDisplay:10.37,2013-01-30 11:13:00,
2013-01-30 12:18:00,54.5,50.1,30.21,WSW,252,2.3,2.3,85,0.00,OVC,FEW,0.00,0.0,WeatherDisplay:10.37,2013-01-30 11:18:00,
2013-01-30 12:23:00,54.8,50.1,30.21,West,266,4.0,4.0,84,0.00,OVC,FEW,0.00,0.0,WeatherDisplay:10.37,2013-01-30 11:23:00,
2013-01-30 12:28:00,54.8,49.7,30.21,WSW,257,4.6,4.6,83,0.00,OVC,FEW,0.00,0.0,WeatherDisplay:10.37,2013-01-30 11:28:00,
2013-01-30 12:33:00,54.9,49.8,30.20,WSW,256,5.8,5.8,83,0.00,OVC,FEW,0.00,0.0,WeatherDisplay:10.37,2013-01-30 11:33:00,
2013-01-30 12:38:00,54.8,49.4,30.20,WSW,255,3.5,3.5,82,0.00,OVC,FEW,0.00,0.0,WeatherDisplay:10.37,2013-01-30 11:38:00,
2013-01-30 12:43:00,54.7,49.3,30.20,WSW,247,2.3,2.3,82,0.00,OVC,FEW,0.00,0.0,WeatherDisplay:10.37,2013-01-30 11:43:00,
2013-01-30 12:48:00,54.6,49.2,30.20,WSW,252,5.8,5.8,82,0.00,OVC,FEW,0.00,0.0,WeatherDisplay:10.37,2013-01-30 11:48:00,
2013-01-30 12:54:00,54.6,49.2,30.20,WSW,242,3.5,3.5,82,0.00,OVC,FEW,0.00,0.0,WeatherDisplay:10.37,2013-01-30 11:54:00,
2013-01-30 12:59:00,54.5,49.1,30.20,WSW,252,4.6,4.6,82,0.00,OVC,FEW,0.00,0.0,WeatherDisplay:10.37,2013-01-30 11:59:00,
2013-01-30 13:04:00,54.6,49.5,30.20,WSW,257,7.0,7.0,83,0.00,OVC,FEW,0.00,0.0,WeatherDisplay:10.37,2013-01-30 12:04:00,
2013-01-30 13:09:00,54.9,49.5,30.20,WSW,258,3.5,3.5,82,0.00,OVC,FEW,0.00,0.0,WeatherDisplay:10.37,2013-01-30 12:09:00,
2013-01-30 13:14:00,55.0,49.6,30.20,WSW,254,6.9,6.9,82,0.00,OVC,FEW,0.00,0.0,WeatherDisplay:10.37,2013-01-30 12:14:00,
2013-01-30 13:19:00,55.0,49.6,30.19,West,261,3.5,3.5,82,0.00,OVC,FEW,0.00,0.0,WeatherDisplay:10.37,2013-01-30 12:19:00,
2013-01-30 13:24:00,54.9,49.5,30.19,WSW,242,6.9,6.9,82,0.00,OVC,FEW,0.00,0.0,WeatherDisplay:10.37,2013-01-30 12:24:00,
2013-01-30 13:29:00,54.7,49.3,30.19,South,186,8.1,8.1,82,0.00,OVC,FEW,0.00,0.0,WeatherDisplay:10.37,2013-01-30 12:29:00,
2013-01-30 13:34:00,55.1,50.0,30.19,SSW,212,10.4,10.4,83,0.00,OVC,FEW,0.00,0.0,WeatherDisplay:10.37,2013-01-30 12:34:00,
2013-01-30 13:39:00,55.1,49.7,30.19,WSW,250,9.2,9.2,82,0.00,OVC,FEW,0.00,0.0,WeatherDisplay:10.37,2013-01-30 12:39:00,
2013-01-30 13:44:00,55.1,49.7,30.19,West,271,5.8,5.8,82,0.00,OVC,FEW,0.00,0.0,WeatherDisplay:10.37,2013-01-30 12:44:00,
2013-01-30 13:49:00,55.0,49.6,30.19,WSW,252,6.9,6.9,82,0.00,OVC,FEW,0.00,0.0,WeatherDisplay:10.37,2013-01-30 12:49:00,
2013-01-30 13:54:00,55.0,49.6,30.19,West,264,4.6,4.6,82,0.00,OVC,FEW,0.00,0.0,WeatherDisplay:10.37,2013-01-30 12:54:00,
2013-01-30 13:59:00,55.0,49.6,30.18,SSW,210,8.1,8.1,82,0.00,OVC,FEW,0.00,0.0,WeatherDisplay:10.37,2013-01-30 12:59:00,
2013-01-30 14:04:00,55.1,49.7,30.18,West,261,10.4,10.4,82,0.00,OVC,FEW,0.00,0.0,WeatherDisplay:10.37,2013-01-30 13:04:00,
2013-01-30 14:09:00,55.2,49.8,30.18,West,260,8.1,8.1,82,0.00,OVC,FEW,0.00,0.0,WeatherDisplay:10.37,2013-01-30 13:09:00,
2013-01-30 14:14:00,55.1,49.4,30.19,SW,217,10.4,10.4,81,0.00,OVC,FEW,0.00,0.0,WeatherDisplay:10.37,2013-01-30 13:14:00,
2013-01-30 14:19:00,55.1,49.7,30.19,West,268,5.0,5.0,82,0.00,OVC,FEW,0.00,0.0,WeatherDisplay:10.37,2013-01-30 13:19:00,
2013-01-30 14:24:00,55.0,49.3,30.19,SW,233,8.1,8.1,81,0.00,OVC,FEW,0.00,0.0,WeatherDisplay:10.37,2013-01-30 13:24:00,
2013-01-30 14:29:00,54.8,49.4,30.19,West,261,5.0,5.0,82,0.00,OVC,FEW,0.00,0.0,WeatherDisplay:10.37,2013-01-30 13:29:00,
2013-01-30 14:34:00,54.6,49.2,30.18,West,259,8.1,8.1,82,0.00,OVC,FEW,0.00,0.0,WeatherDisplay:10.37,2013-01-30 13:34:00,
2013-01-30 14:39:00,54.5,49.1,30.18,WSW,250,6.9,6.9,82,0.00,OVC,FEW,0.00,0.0,WeatherDisplay:10.37,2013-01-30 13:39:00,
2013-01-30 14:44:00,54.3,48.9,30.19,WNW,292,4.6,4.6,82,0.00,OVC,FEW,0.00,0.0,WeatherDisplay:10.37,2013-01-30 13:44:00,
2013-01-30 14:49:00,54.1,48.7,30.18,West,277,6.9,6.9,82,0.00,OVC,FEW,0.00,0.0,WeatherDisplay:10.37,2013-01-30 13:49:00,
2013-01-30 14:54:00,53.9,48.5,30.18,SW,234,3.5,3.5,82,0.00,OVC,FEW,0.00,0.0,WeatherDisplay:10.37,2013-01-30 13:54:00,
2013-01-30 14:59:00,53.8,48.8,30.17,West,274,6.9,6.9,83,0.00,OVC,FEW,0.00,0.0,WeatherDisplay:10.37,2013-01-30 13:59:00,
2013-01-30 15:04:00,53.6,48.6,30.18,SSW,203,9.2,9.2,83,0.00,OVC,FEW,0.00,0.0,WeatherDisplay:10.37,2013-01-30 14:04:00,
2013-01-30 15:09:00,53.6,48.9,30.18,SSW,212,4.6,4.6,84,0.00,OVC,FEW,0.00,0.0,WeatherDisplay:10.37,2013-01-30 14:09:00,
2013-01-30 15:14:00,53.6,48.9,30.18,West,281,8.1,8.1,84,0.00,OVC,FEW,0.00,0.0,WeatherDisplay:10.37,2013-01-30 14:14:00,
2013-01-30 15:19:00,53.8,49.1,30.18,West,267,3.5,3.5,84,0.00,OVC,FEW,0.00,0.0,WeatherDisplay:10.37,2013-01-30 14:19:00,
2013-01-30 15:24:00,53.8,49.1,30.18,WSW,253,9.2,9.2,84,0.00,OVC,FEW,0.00,0.0,WeatherDisplay:10.37,2013-01-30 14:24:00,
2013-01-30 15:29:00,53.7,49.0,30.18,SW,215,5.8,5.8,84,0.00,OVC,FEW,0.00,0.0,WeatherDisplay:10.37,2013-01-30 14:29:00,
2013-01-30 15:34:00,53.5,48.8,30.18,West,271,9.2,9.2,84,0.00,OVC,FEW,0.00,0.0,WeatherDisplay:10.37,2013-01-30 14:34:00,
2013-01-30 15:39:00,53.5,49.1,30.18,West,265,4.6,4.6,85,0.00,OVC,FEW,0.00,0.0,WeatherDisplay:10.37,2013-01-30 14:39:00,
2013-01-30 15:44:00,53.5,49.1,30.18,WSW,239,3.5,3.5,85,0.00,OVC,FEW,0.00,0.0,WeatherDisplay:10.37,2013-01-30 14:44:00,
2013-01-30 15:49:00,53.4,49.0,30.18,West,259,4.6,4.6,85,0.00,OVC,FEW,0.00,0.0,WeatherDisplay:10.37,2013-01-30 14:49:00,
2013-01-30 15:54:00,53.4,49.0,30.18,West,261,5.8,5.8,85,0.00,OVC,FEW,0.00,0.0,WeatherDisplay:10.37,2013-01-30 14:54:00,
2013-01-30 15:59:00,53.4,49.0,30.18,West,261,3.5,3.5,85,0.00,OVC,FEW,0.00,0.0,WeatherDisplay:10.37,2013-01-30 14:59:00,
2013-01-30 16:04:00,53.4,49.0,30.18,West,261,3.5,3.5,85,0.00,OVC,FEW,0.00,0.0,WeatherDisplay:10.37,2013-01-30 15:04:00,
2013-01-30 16:09:00,53.3,48.9,30.17,WSW,249,3.5,3.5,85,0.00,OVC,FEW,0.00,0.0,WeatherDisplay:10.37,2013-01-30 15:09:00,
2013-01-30 16:14:00,53.3,48.9,30.18,WSW,255,4.6,4.6,85,0.00,OVC,FEW,0.00,0.0,WeatherDisplay:10.37,2013-01-30 15:14:00,
2013-01-30 16:19:00,53.2,48.8,30.18,West,259,4.6,4.6,85,0.00,OVC,FEW,0.00,0.0,WeatherDisplay:10.37,2013-01-30 15:19:00,
2013-01-30 16:24:00,53.2,48.8,30.18,West,260,3.0,3.0,85,0.00,OVC,FEW,0.00,0.0,WeatherDisplay:10.37,2013-01-30 15:24:00,
2013-01-30 16:29:00,53.1,48.7,30.18,WSW,247,5.0,5.0,85,0.00,OVC,FEW,0.00,0.0,WeatherDisplay:10.37,2013-01-30 15:29:00,
2013-01-30 16:34:00,53.1,48.7,30.18,WSW,257,4.6,4.6,85,0.00,OVC,FEW,0.00,0.0,WeatherDisplay:10.37,2013-01-30 15:34:00,
2013-01-30 16:39:00,53.1,48.7,30.19,West,263,3.5,3.5,85,0.00,OVC,FEW,0.00,0.0,WeatherDisplay:10.37,2013-01-30 15:39:00,
2013-01-30 16:44:00,53.1,48.7,30.18,West,259,3.5,3.5,85,0.00,OVC,FEW,0.00,0.0,WeatherDisplay:10.37,2013-01-30 15:44:00,
2013-01-30 16:49:00,53.1,49.0,30.18,SW,229,3.5,3.5,86,0.00,OVC,FEW,0.00,0.0,WeatherDisplay:10.37,2013-01-30 15:49:00,
2013-01-30 16:54:00,53.0,48.9,30.18,West,260,5.8,5.8,86,0.00,OVC,FEW,0.00,0.0,WeatherDisplay:10.37,2013-01-30 15:54:00,
2013-01-30 16:59:00,53.0,48.9,30.18,WSW,254,3.5,3.5,86,0.00,OVC,FEW,0.00,0.0,WeatherDisplay:10.37,2013-01-30 15:59:00,
2013-01-30 17:04:00,52.9,48.8,30.18,West,259,3.5,3.5,86,0.00,OVC,FEW,0.00,0.0,WeatherDisplay:10.37,2013-01-30 16:04:00,
2013-01-30 17:09:00,52.8,48.7,30.18,WSW,258,1.2,1.2,86,0.00,OVC,FEW,0.00,0.0,WeatherDisplay:10.37,2013-01-30 16:09:00,
2013-01-30 17:14:00,52.8,48.7,30.18,WNW,284,3.5,3.5,86,0.00,OVC,FEW,0.00,0.0,WeatherDisplay:10.37,2013-01-30 16:14:00,
2013-01-30 17:19:00,52.8,49.0,30.18,West,273,3.5,3.5,87,0.00,OVC,FEW,0.00,0.0,WeatherDisplay:10.37,2013-01-30 16:19:00,
2013-01-30 17:24:00,52.7,48.9,30.18,West,273,5.8,5.8,87,0.00,OVC,FEW,0.00,0.0,WeatherDisplay:10.37,2013-01-30 16:24:00,
2013-01-30 17:29:00,52.6,48.8,30.18,West,268,3.5,3.5,87,0.00,OVC,FEW,0.00,0.0,WeatherDisplay:10.37,2013-01-30 16:29:00,
2013-01-30 17:34:00,52.6,48.8,30.19,West,269,3.5,3.5,87,0.00,OVC,FEW,0.00,0.0,WeatherDisplay:10.37,2013-01-30 16:34:00,
2013-01-30 17:39:00,52.5,48.7,30.19,West,269,4.6,4.6,87,0.00,OVC,FEW,0.00,0.0,WeatherDisplay:10.37,2013-01-30 16:39:00,
2013-01-30 17:44:00,52.4,48.6,30.19,West,265,4.6,4.6,87,0.00,OVC,FEW,0.00,0.0,WeatherDisplay:10.37,2013-01-30 16:44:00,
2013-01-30 17:49:00,52.3,48.5,30.18,WSW,257,4.0,4.0,87,0.00,CLR,FEW,0.00,0.0,WeatherDisplay:10.37,2013-01-30 16:49:00,
2013-01-30 17:54:00,52.2,48.8,30.19,WSW,255,2.3,2.3,88,0.00,CLR,FEW,0.00,0.0,WeatherDisplay:10.37,2013-01-30 16:54:00,
2013-01-30 17:59:00,52.2,48.8,30.19,WSW,255,3.5,3.5,88,0.00,CLR,FEW,0.00,0.0,WeatherDisplay:10.37,2013-01-30 16:59:00,
2013-01-30 18:04:00,52.0,48.3,30.19,WNW,289,3.5,3.5,87,0.00,CLR,FEW,0.00,0.0,WeatherDisplay:10.37,2013-01-30 17:04:00,
2013-01-30 18:09:00,51.9,48.2,30.18,SW,229,4.6,4.6,87,0.00,CLR,FEW,0.00,0.0,WeatherDisplay:10.37,2013-01-30 17:09:00,
2013-01-30 18:15:00,51.8,48.1,30.19,West,263,3.5,3.5,87,0.00,CLR,FEW,0.00,0.0,WeatherDisplay:10.37,2013-01-30 17:15:00,
2013-01-30 18:20:00,51.6,48.2,30.19,West,271,3.5,3.5,88,0.00,CLR,FEW,0.00,0.0,WeatherDisplay:10.37,2013-01-30 17:20:00,
2013-01-30 18:25:00,51.4,47.7,30.19,West,265,3.5,3.5,87,0.00,CLR,FEW,0.00,0.0,WeatherDisplay:10.37,2013-01-30 17:25:00,
2013-01-30 18:30:00,51.3,47.9,30.19,West,262,6.0,6.0,88,0.00,CLR,FEW,0.00,0.0,WeatherDisplay:10.37,2013-01-30 17:30:00,
2013-01-30 18:35:00,51.1,47.7,30.19,West,276,4.6,4.6,88,0.00,CLR,FEW,0.00,0.0,WeatherDisplay:10.37,2013-01-30 17:35:00,
2013-01-30 18:40:00,50.9,47.5,30.19,West,274,4.6,4.6,88,0.00,CLR,FEW,0.00,0.0,WeatherDisplay:10.37,2013-01-30 17:40:00,
2013-01-30 18:45:00,50.7,47.3,30.19,West,273,5.8,5.8,88,0.00,CLR,FEW,0.00,0.0,WeatherDisplay:10.37,2013-01-30 17:45:00,
2013-01-30 18:50:00,50.6,47.2,30.19,West,272,3.5,3.5,88,0.00,CLR,FEW,0.00,0.0,WeatherDisplay:10.37,2013-01-30 17:50:00,
2013-01-30 18:55:00,50.6,47.2,30.19,West,270,3.5,3.5,88,0.00,CLR,FEW,0.00,0.0,WeatherDisplay:10.37,2013-01-30 17:55:00,
2013-01-30 19:00:00,50.5,47.1,30.20,West,270,3.0,3.0,88,0.00,CLR,FEW,0.00,0.0,WeatherDisplay:10.37,2013-01-30 18:00:00,
2013-01-30 19:05:00,50.4,47.0,30.20,West,270,2.3,2.3,88,0.00,CLR,FEW,0.00,0.0,WeatherDisplay:10.37,2013-01-30 18:05:00,
2013-01-30 19:10:00,50.4,47.0,30.19,West,270,2.0,2.0,88,0.00,CLR,FEW,0.00,0.0,WeatherDisplay:10.37,2013-01-30 18:10:00,
2013-01-30 19:15:00,50.4,47.0,30.20,West,270,1.2,1.2,88,0.00,CLR,FEW,0.00,0.0,WeatherDisplay:10.37,2013-01-30 18:15:00,
2013-01-30 19:20:00,50.5,47.1,30.19,West,270,3.5,3.5,88,0.00,CLR,FEW,0.00,0.0,WeatherDisplay:10.37,2013-01-30 18:20:00,
2013-01-30 19:25:00,50.6,47.2,30.19,West,270,3.5,3.5,88,0.00,CLR,FEW,0.00,0.0,WeatherDisplay:10.37,2013-01-30 18:25:00,
2013-01-30 19:30:00,50.7,47.6,30.19,West,271,3.5,3.5,89,0.00,CLR,FEW,0.00,0.0,WeatherDisplay:10.37,2013-01-30 18:30:00,
2013-01-30 19:35:00,50.8,47.7,30.19,West,271,4.6,4.6,89,0.00,CLR,FEW,0.00,0.0,WeatherDisplay:10.37,2013-01-30 18:35:00,
2013-01-30 19:40:00,50.9,47.8,30.19,West,267,4.0,4.0,89,0.00,CLR,FEW,0.00,0.0,WeatherDisplay:10.37,2013-01-30 18:40:00,
2013-01-30 19:45:00,50.8,47.7,30.19,West,267,2.3,2.3,89,0.00,CLR,FEW,0.00,0.0,WeatherDisplay:10.37,2013-01-30 18:45:00,
2013-01-30 19:50:00,50.7,47.6,30.19,West,267,0.0,0.0,89,0.00,CLR,FEW,0.00,0.0,WeatherDisplay:10.37,2013-01-30 18:50:00,
2013-01-30 19:55:00,50.6,47.5,30.19,West,267,2.3,2.3,89,0.00,CLR,FEW,0.00,0.0,WeatherDisplay:10.37,2013-01-30 18:55:00,
2013-01-30 20:00:00,50.5,47.4,30.19,West,267,0.0,0.0,89,0.00,CLR,FEW,0.00,0.0,WeatherDisplay:10.37,2013-01-30 19:00:00,
2013-01-30 20:05:00,50.4,47.0,30.19,West,267,1.2,1.2,88,0.00,CLR,FEW,0.00,0.0,WeatherDisplay:10.37,2013-01-30 19:05:00,
2013-01-30 20:10:00,50.3,46.9,30.19,West,267,1.2,1.2,88,0.00,CLR,FEW,0.00,0.0,WeatherDisplay:10.37,2013-01-30 19:10:00,
2013-01-30 20:15:00,50.2,46.8,30.19,West,267,1.2,0.0,88,0.00,CLR,FEW,0.00,0.0,WeatherDisplay:10.37,2013-01-30 19:15:00,
2013-01-30 20:20:00,50.1,47.0,30.19,West,267,1.2,0.0,89,0.00,CLR,FEW,0.00,0.0,WeatherDisplay:10.37,2013-01-30 19:20:00,
2013-01-30 20:25:00,50.0,46.9,30.19,West,267,0.0,0.0,89,0.00,CLR,FEW,0.00,0.0,WeatherDisplay:10.37,2013-01-30 19:25:00,
2013-01-30 20:30:00,50.0,46.9,30.19,West,267,0.0,0.0,89,0.00,CLR,FEW,0.00,0.0,WeatherDisplay:10.37,2013-01-30 19:30:00,
2013-01-30 20:35:00,50.0,46.9,30.19,West,267,2.3,2.3,89,0.00,CLR,FEW,0.00,0.0,WeatherDisplay:10.37,2013-01-30 19:35:00,
2013-01-30 20:40:00,50.1,47.0,30.19,West,267,0.0,0.0,89,0.00,CLR,FEW,0.00,0.0,WeatherDisplay:10.37,2013-01-30 19:40:00,
2013-01-30 20:45:00,50.1,47.0,30.19,West,267,0.0,0.0,89,0.00,CLR,FEW,0.00,0.0,WeatherDisplay:10.37,2013-01-30 19:45:00,
2013-01-30 20:50:00,50.1,47.0,30.19,West,267,0.0,0.0,89,0.00,CLR,FEW,0.00,0.0,WeatherDisplay:10.37,2013-01-30 19:50:00,
2013-01-30 20:55:00,50.1,47.0,30.19,West,267,0.0,0.0,89,0.00,CLR,FEW,0.00,0.0,WeatherDisplay:10.37,2013-01-30 19:55:00,
2013-01-30 21:00:00,50.1,47.0,30.18,West,267,0.0,0.0,89,0.00,CLR,FEW,0.00,0.0,WeatherDisplay:10.37,2013-01-30 20:00:00,
2013-01-30 21:05:00,50.3,47.5,30.18,West,267,0.0,0.0,90,0.00,CLR,FEW,0.00,0.0,WeatherDisplay:10.37,2013-01-30 20:05:00,
2013-01-30 21:10:00,50.4,47.6,30.18,West,267,0.0,0.0,90,0.00,CLR,FEW,0.00,0.0,WeatherDisplay:10.37,2013-01-30 20:10:00,
2013-01-30 21:15:00,50.5,47.7,30.18,West,267,0.0,0.0,90,0.00,CLR,FEW,0.00,0.0,WeatherDisplay:10.37,2013-01-30 20:15:00,
2013-01-30 21:20:00,50.6,47.8,30.18,West,267,0.0,0.0,90,0.00,CLR,FEW,0.00,0.0,WeatherDisplay:10.37,2013-01-30 20:20:00,
2013-01-30 21:25:00,50.6,47.8,30.18,West,267,0.0,0.0,90,0.00,CLR,FEW,0.00,0.0,WeatherDisplay:10.37,2013-01-30 20:25:00,
2013-01-30 21:30:00,50.7,47.9,30.18,West,267,0.0,0.0,90,0.00,CLR,FEW,0.00,0.0,WeatherDisplay:10.37,2013-01-30 20:30:00,
2013-01-30 21:35:00,50.8,48.0,30.18,West,267,0.0,0.0,90,0.00,CLR,FEW,0.00,0.0,WeatherDisplay:10.37,2013-01-30 20:35:00,
2013-01-30 21:40:00,50.9,48.1,30.18,West,267,0.0,0.0,90,0.00,CLR,FEW,0.00,0.0,WeatherDisplay:10.37,2013-01-30 20:40:00,
2013-01-30 21:45:00,50.9,48.1,30.18,West,267,1.2,0.0,90,0.00,CLR,FEW,0.00,0.0,WeatherDisplay:10.37,2013-01-30 20:45:00,
2013-01-30 21:50:00,50.9,48.1,30.18,West,267,0.0,0.0,90,0.00,CLR,FEW,0.00,0.0,WeatherDisplay:10.37,2013-01-30 20:50:00,
2013-01-30 21:55:00,51.0,48.2,30.19,West,267,2.3,0.0,90,0.00,CLR,FEW,0.00,0.0,WeatherDisplay:10.37,2013-01-30 20:55:00,
2013-01-30 22:00:00,51.1,48.3,30.18,West,267,2.3,2.3,90,0.00,CLR,FEW,0.00,0.0,WeatherDisplay:10.37,2013-01-30 21:00:00,
2013-01-30 22:05:00,51.1,48.6,30.18,West,267,1.2,1.2,91,0.00,CLR,FEW,0.00,0.0,WeatherDisplay:10.37,2013-01-30 21:05:00,
2013-01-30 22:10:00,51.1,48.6,30.18,West,267,2.3,2.3,91,0.00,CLR,FEW,0.00,0.0,WeatherDisplay:10.37,2013-01-30 21:10:00,
2013-01-30 22:15:00,51.2,48.7,30.18,West,267,1.2,0.0,91,0.00,CLR,FEW,0.00,0.0,WeatherDisplay:10.37,2013-01-30 21:15:00,
2013-01-30 22:20:00,51.2,48.7,30.18,West,267,0.0,0.0,91,0.00,CLR,FEW,0.00,0.0,WeatherDisplay:10.37,2013-01-30 21:20:00,
2013-01-30 22:25:00,51.2,48.7,30.18,West,267,0.0,0.0,91,0.00,CLR,FEW,0.00,0.0,WeatherDisplay:10.37,2013-01-30 21:25:00,
2013-01-30 22:30:00,51.3,48.8,30.18,West,267,1.2,0.0,91,0.00,CLR,FEW,0.00,0.0,WeatherDisplay:10.37,2013-01-30 21:30:00,
2013-01-30 22:35:00,51.3,48.8,30.18,West,267,1.2,1.2,91,0.00,CLR,FEW,0.00,0.0,WeatherDisplay:10.37,2013-01-30 21:35:00,
2013-01-30 22:40:00,51.3,48.8,30.18,West,267,3.5,3.5,91,0.00,CLR,FEW,0.00,0.0,WeatherDisplay:10.37,2013-01-30 21:40:00,
2013-01-30 22:45:00,51.4,48.9,30.18,West,267,3.5,3.5,91,0.00,CLR,FEW,0.00,0.0,WeatherDisplay:10.37,2013-01-30 21:45:00,
2013-01-30 22:50:00,51.5,49.0,30.18,West,267,3.5,3.5,91,0.00,CLR,FEW,0.00,0.0,WeatherDisplay:10.37,2013-01-30 21:50:00,
2013-01-30 22:55:00,51.5,49.0,30.18,West,267,3.5,0.0,91,0.00,CLR,FEW,0.00,0.0,WeatherDisplay:10.37,2013-01-30 21:55:00,
2013-01-30 23:00:00,51.5,49.0,30.18,West,267,0.0,0.0,91,0.00,CLR,FEW,0.00,0.0,WeatherDisplay:10.37,2013-01-30 22:00:00,
2013-01-30 23:05:00,51.5,49.0,30.18,West,267,0.0,0.0,91,0.00,CLR,FEW,0.00,0.0,WeatherDisplay:10.37,2013-01-30 22:05:00,
2013-01-30 23:10:00,51.6,49.1,30.18,West,267,1.2,1.2,91,0.00,CLR,FEW,0.00,0.0,WeatherDisplay:10.37,2013-01-30 22:10:00,
2013-01-30 23:15:00,51.5,49.0,30.18,West,267,1.2,0.0,91,0.00,CLR,FEW,0.00,0.0,WeatherDisplay:10.37,2013-01-30 22:15:00,
2013-01-30 23:20:00,51.5,49.0,30.18,West,267,0.0,0.0,91,0.00,CLR,FEW,0.00,0.0,WeatherDisplay:10.37,2013-01-30 22:20:00,
2013-01-30 23:25:00,51.5,49.0,30.18,West,267,3.5,3.5,91,0.00,CLR,FEW,0.00,0.0,WeatherDisplay:10.37,2013-01-30 22:25:00,
2013-01-30 23:30:00,51.4,48.9,30.17,West,267,1.2,1.2,91,0.00,CLR,FEW,0.00,0.0,WeatherDisplay:10.37,2013-01-30 22:30:00,
2013-01-30 23:35:00,51.4,48.9,30.17,West,261,5.0,5.0,91,0.00,CLR,FEW,0.00,0.0,WeatherDisplay:10.37,2013-01-30 22:35:00,
2013-01-30 23:40:00,51.5,49.0,30.18,West,261,3.5,3.5,91,0.00,CLR,FEW,0.00,0.0,WeatherDisplay:10.37,2013-01-30 22:40:00,
2013-01-30 23:45:00,51.5,49.0,30.17,West,261,4.6,4.6,91,0.00,CLR,FEW,0.00,0.0,WeatherDisplay:10.37,2013-01-30 22:45:00,
2013-01-30 23:50:00,51.6,49.1,30.17,West,260,3.5,3.5,91,0.00,CLR,FEW,0.00,0.0,WeatherDisplay:10.37,2013-01-30 22:50:00,
2013-01-30 23:55:00,51.6,49.1,30.18,WSW,247,8.1,8.1,91,0.00,CLR,FEW,0.00,0.0,WeatherDisplay:10.37,2013-01-30 22:55:00,